When you browse on this site, cookies collect data to enhance your experience and personalize the content and advertising you see.
Visit our Privacy Policy to learn more. By continuing to use the site, you agree to this use of cookies and data.
  • In Latvia
  • List of Countries
  • For 7 days
  • Water Temperature
  • Weather Map
  • Weather Widgets
  • user-avatar
    Login

    Hourly Weather Aberdeen

    Today, 20 February, Thursday

    Time Temperature Precipitation Wind Pressure Humidity
    00:00 +6°C° 0.2 mm 4 mps 738 mmHg 95%
    01:00 +6°C° 0.3 mm 4 mps 738 mmHg 96%
    02:00 +7°C° 0.3 mm 3 mps 737 mmHg 96%
    03:00 +7°C° 0.3 mm 3 mps 737 mmHg 96%
    04:00 +5°C° 0.4 mm 3 mps 736 mmHg 95%
    05:00 +5°C° 0.4 mm 3 mps 736 mmHg 94%
    06:00 +4°C° 0.4 mm 3 mps 735 mmHg 93%
    07:00 +4°C° 0.3 mm 4 mps 736 mmHg 90%
    08:00 +3°C° 0.3 mm 5 mps 736 mmHg 88%
    09:00 +2°C° 0.3 mm 6 mps 736 mmHg 85%
    10:00 +2°C° 0 mm 7 mps 737 mmHg 77%
    11:00 +1°C° 0 mm 8 mps 738 mmHg 70%
    12:00 +1°C° 0 mm 9 mps 739 mmHg 62%
    13:00 +1°C° 0 mm 9 mps 739 mmHg 60%
    14:00 +1°C° 0 mm 9 mps 739 mmHg 59%
    15:00 +1°C° 0 mm 10 mps 739 mmHg 57%
    16:00 0°C° 0 mm 9 mps 740 mmHg 63%
    17:00 0°C° 0 mm 8 mps 740 mmHg 70%
    18:00 -1°C° 0 mm 7 mps 741 mmHg 76%
    19:00 -1°C° 0 mm 8 mps 742 mmHg 79%
    20:00 -1°C° 0 mm 8 mps 743 mmHg 81%
    21:00 -1°C° 0 mm 9 mps 744 mmHg 84%
    22:00 -1°C° 0 mm 8 mps 744 mmHg 86%
    23:00 -1°C° 0 mm 7 mps 745 mmHg 87%

    Tomorrow, 21 February, Friday

    Time Temperature Precipitation Wind Pressure Humidity
    00:00 -1°C° 0 mm 6 mps 746 mmHg 89%
    01:00 -1°C° 0 mm 6 mps 746 mmHg 89%
    02:00 -1°C° 0 mm 7 mps 745 mmHg 90%
    03:00 0°C° 0 mm 7 mps 745 mmHg 90%
    04:00 0°C° 0 mm 8 mps 745 mmHg 89%
    05:00 +1°C° 0 mm 9 mps 744 mmHg 88%
    06:00 +2°C° 0 mm 10 mps 744 mmHg 86%
    13:00 +6°C° 0.6 mm 11 mps 741 mmHg 88%
    14:00 +6°C° 0.6 mm 11 mps 740 mmHg 88%
    15:00 +7°C° 0.6 mm 11 mps 740 mmHg 88%
    16:00 +7°C° 0.6 mm 10 mps 740 mmHg 88%
    17:00 +7°C° 0.6 mm 10 mps 739 mmHg 89%
    18:00 +7°C° 0.6 mm 9 mps 739 mmHg 89%
    19:00 +7°C° 0.9 mm 9 mps 739 mmHg 89%
    20:00 +7°C° 0.9 mm 8 mps 738 mmHg 89%
    21:00 +6°C° 0.9 mm 7 mps 738 mmHg 89%
    22:00 +6°C° 0.5 mm 7 mps 738 mmHg 88%
    23:00 +5°C° 0.5 mm 7 mps 738 mmHg 86%

    Day after tomorrow, 22 February, Saturday

    Time Temperature Precipitation Wind Pressure Humidity
    00:00 +5°C° 0.5 mm 7 mps 738 mmHg 84%
    01:00 +4°C° 0.5 mm 7 mps 738 mmHg 84%
    02:00 +2°C° 0.5 mm 8 mps 738 mmHg 85%
    03:00 +1°C° 0.5 mm 8 mps 738 mmHg 86%
    04:00 +1°C° 0.1 mm 8 mps 739 mmHg 85%
    05:00 0°C° 0.1 mm 8 mps 739 mmHg 84%
    06:00 0°C° 0.1 mm 8 mps 740 mmHg 83%
    07:00 0°C° 0.1 mm 9 mps 740 mmHg 81%
    08:00 0°C° 0.1 mm 9 mps 741 mmHg 80%
    09:00 0°C° 0.1 mm 9 mps 741 mmHg 78%
    10:00 0°C° 0.2 mm 10 mps 742 mmHg 72%
    11:00 0°C° 0.2 mm 12 mps 742 mmHg 66%
    12:00 0°C° 0.2 mm 13 mps 743 mmHg 60%
    13:00 0°C° 0.1 mm 12 mps 743 mmHg 60%
    14:00 0°C° 0.1 mm 12 mps 744 mmHg 60%
    15:00 -1°C° 0.1 mm 12 mps 744 mmHg 61%
    16:00 -1°C° 0 mm 11 mps 744 mmHg 65%
    17:00 -2°C° 0 mm 10 mps 745 mmHg 70%
    18:00 -3°C° 0 mm 9 mps 745 mmHg 75%
    19:00 -3°C° 0 mm 9 mps 745 mmHg 76%
    20:00 -2°C° 0 mm 8 mps 746 mmHg 78%
    21:00 -2°C° 0 mm 8 mps 746 mmHg 79%
    22:00 -2°C° 0 mm 8 mps 746 mmHg 80%
    23:00 -2°C° 0 mm 8 mps 747 mmHg 81%

    23 February, Sunday

    Time Temperature Precipitation Wind Pressure Humidity
    00:00 -2°C° 0 mm 8 mps 747 mmHg 82%
    01:00 -2°C° 0 mm 8 mps 747 mmHg 80%
    02:00 -2°C° 0 mm 8 mps 747 mmHg 79%
    03:00 -2°C° 0 mm 8 mps 747 mmHg 78%
    04:00 -2°C° 0 mm 8 mps 747 mmHg 79%
    05:00 -2°C° 0 mm 8 mps 747 mmHg 80%
    06:00 -3°C° 0 mm 7 mps 747 mmHg 81%
    07:00 -2°C° 0 mm 8 mps 747 mmHg 79%
    08:00 -2°C° 0 mm 8 mps 747 mmHg 76%
    09:00 -1°C° 0 mm 8 mps 747 mmHg 74%
    10:00 0°C° 0 mm 9 mps 747 mmHg 68%
    11:00 +1°C° 0 mm 10 mps 748 mmHg 61%
    12:00 +2°C° 0 mm 10 mps 749 mmHg 55%
    13:00 +2°C° 0 mm 10 mps 749 mmHg 57%
    14:00 +2°C° 0 mm 9 mps 750 mmHg 58%
    15:00 +2°C° 0 mm 9 mps 751 mmHg 60%
    16:00 +1°C° 0 mm 8 mps 753 mmHg 63%
    17:00 0°C° 0 mm 7 mps 754 mmHg 65%
    18:00 -1°C° 0 mm 7 mps 755 mmHg 67%
    19:00 -1°C° 0 mm 5 mps 757 mmHg 70%
    20:00 -1°C° 0 mm 4 mps 758 mmHg 73%
    21:00 -1°C° 0 mm 2 mps 759 mmHg 76%
    22:00 -1°C° 0 mm 2 mps 759 mmHg 76%
    23:00 -1°C° 0 mm 2 mps 760 mmHg 76%

    24 February, Monday

    Time Temperature Precipitation Wind Pressure Humidity
    00:00 -1°C° 0 mm 2 mps 760 mmHg 75%
    01:00 -1°C° 0 mm 2 mps 759 mmHg 74%
    02:00 -1°C° 0 mm 2 mps 759 mmHg 73%
    03:00 +1°C° 0 mm 2 mps 758 mmHg 72%
    04:00 -1°C° 0.2 mm 4 mps 756 mmHg 74%
    05:00 -1°C° 0.2 mm 5 mps 755 mmHg 77%
    06:00 -2°C° 0.2 mm 7 mps 753 mmHg 79%
    07:00 -2°C° 1.8 mm 7 mps 750 mmHg 85%
    08:00 -2°C° 1.8 mm 8 mps 748 mmHg 91%
    09:00 -2°C° 1.8 mm 8 mps 745 mmHg 97%
    10:00 -2°C° 2.7 mm 7 mps 743 mmHg 98%
    11:00 -1°C° 2.7 mm 6 mps 741 mmHg 98%
    12:00 +1°C° 2.7 mm 5 mps 739 mmHg 99%
    13:00 +2°C° 0.4 mm 6 mps 738 mmHg 98%
    14:00 +2°C° 0.4 mm 8 mps 738 mmHg 96%
    15:00 +2°C° 0.4 mm 9 mps 737 mmHg 95%
    16:00 +2°C° 0 mm 9 mps 737 mmHg 92%
    17:00 +1°C° 0 mm 9 mps 737 mmHg 90%
    18:00 0°C° 0 mm 10 mps 737 mmHg 87%
    19:00 0°C° 0 mm 10 mps 736 mmHg 86%
    20:00 0°C° 0 mm 10 mps 736 mmHg 84%
    21:00 0°C° 0 mm 10 mps 736 mmHg 82%
    22:00 0°C° 0.2 mm 10 mps 736 mmHg 84%
    23:00 0°C° 0.2 mm 10 mps 736 mmHg 86%

    25 February, Tuesday

    Time Temperature Precipitation Wind Pressure Humidity
    00:00 0°C° 0.2 mm 10 mps 736 mmHg 88%
    01:00 0°C° 0 mm 10 mps 737 mmHg 87%
    02:00 0°C° 0 mm 10 mps 737 mmHg 86%
    03:00 0°C° 0 mm 10 mps 738 mmHg 85%
    04:00 -1°C° 0 mm 9 mps 738 mmHg 86%
    05:00 -1°C° 0 mm 9 mps 738 mmHg 87%
    06:00 -2°C° 0 mm 8 mps 738 mmHg 87%
    07:00 -1°C° 0 mm 8 mps 738 mmHg 87%
    08:00 -1°C° 0 mm 8 mps 738 mmHg 87%
    09:00 -1°C° 0 mm 7 mps 739 mmHg 86%
    10:00 0°C° 0 mm 8 mps 739 mmHg 83%
    11:00 0°C° 0 mm 8 mps 739 mmHg 80%
    12:00 +1°C° 0 mm 9 mps 739 mmHg 77%
    13:00 +1°C° 0 mm 9 mps 738 mmHg 77%
    14:00 +1°C° 0 mm 8 mps 738 mmHg 77%
    15:00 +1°C° 0 mm 8 mps 738 mmHg 76%
    16:00 0°C° 0 mm 7 mps 737 mmHg 80%
    17:00 -1°C° 0 mm 6 mps 736 mmHg 83%
    18:00 -1°C° 0 mm 5 mps 736 mmHg 87%
    19:00 -1°C° 0 mm 5 mps 735 mmHg 88%
    20:00 -1°C° 0 mm 5 mps 735 mmHg 88%
    21:00 -1°C° 0 mm 5 mps 734 mmHg 89%
    22:00 -2°C° 0 mm 5 mps 734 mmHg 90%
    23:00 -2°C° 0 mm 5 mps 733 mmHg 90%
    Show more